Marion, IN

12:29 AM EDT on August 17, 2017 (GMT -0400)
Marion Municipal

Weather History for KMZZ - April, 2014

Change the Weather History Date:

Tuesday, April 8, 2014

  Actual Average (KMIE) Record (KMIE)
Temperature  
Mean Temperature 44 °F -  
Max Temperature 53 °F 59 °F 82 °F (2001)
Min Temperature 36 °F 37 °F 17 °F (1972)
Degree Days  
Heating Degree Days 20    
Moisture  
Dew Point 38 °F    
Average Humidity 77    
Maximum Humidity 98    
Minimum Humidity 59    
Precipitation  
Precipitation 0.03 in - - ()
Sea Level Pressure  
Sea Level Pressure 29.73 in    
Wind  
Wind Speed 9 mph (WNW)    
Max Wind Speed 16 mph    
Max Gust Speed 18 mph    
Visibility 7 miles    
Events Rain    
Averages and records for this station are not official NWS values.
T = Trace of Precipitation, MM = Missing Value Source: NWS Daily Summary

Daily Weather History Graph

Daily Weather History Graph

Search for Another Location

Airport or City:

Trip Planner

Search our weather history database for the weather conditions in past years. The results will help you decide how hot, cold, wet, or windy it might be!

Date:

Astronomy

Apr. 08, 2014 Rise Set
Actual Time 7:15 AM EDT 8:14 PM EDT
Civil Twilight 6:47 AM EDT 8:42 PM EDT
Nautical Twilight 6:14 AM EDT 9:15 PM EDT
Astronomical Twilight 5:39 AM EDT 9:50 PM EDT
Moon 2:06 PM EDT (4/8) 3:28 AM EDT (4/8)
Length of Visible Light 13h 55m
Length of Day
12h 59m
Waxing Gibbous, 62% of the Moon is Illuminated
Apr 8
Waxing Gibbous
Apr 15
Full
Apr 22
Last Quarter
Apr 29
New
May 6
First Quarter

Hourly Weather History & Observations

Time (EDT) Temp. Windchill Dew Point Humidity Pressure Visibility Wind Dir Wind Speed Gust Speed Precip Events Conditions
12:15 AM 41.0 °F 34.3 °F 39.9 °F 96% 29.59 in 3.0 mi NW 11.5 mph - 0.01 in Rain Light Rain
12:35 AM 41.0 °F 34.3 °F 40.3 °F 97% 29.60 in 4.0 mi WNW 11.5 mph - 0.02 in Rain Light Rain
12:55 AM 41.0 °F 33.9 °F 40.5 °F 98% 29.60 in 4.0 mi WNW 12.7 mph - 0.03 in Rain Light Rain
1:15 AM 41.0 °F 34.7 °F 40.5 °F 98% 29.61 in 4.0 mi WNW 10.4 mph - N/A Rain Light Rain
1:35 AM 41.0 °F 34.3 °F 40.5 °F 98% 29.61 in 4.0 mi WNW 11.5 mph - N/A Rain Light Rain
1:55 AM 41.0 °F 33.9 °F 40.3 °F 97% 29.62 in 5.0 mi WNW 12.7 mph 17.3 mph N/A   Overcast
2:15 AM 40.6 °F 33.4 °F 40.1 °F 98% 29.62 in 4.0 mi West 12.7 mph - N/A   Overcast
2:35 AM 40.5 °F 34.1 °F 39.9 °F 98% 29.62 in 3.0 mi West 10.4 mph - N/A   Overcast
2:55 AM 40.3 °F 33.4 °F 39.6 °F 97% 29.62 in 4.0 mi West 11.5 mph - N/A   Overcast
3:15 AM 40.1 °F 31.6 °F 38.7 °F 95% 29.62 in 5.0 mi West 16.1 mph - N/A   Overcast
3:35 AM 39.6 °F 31.7 °F 36.5 °F 89% 29.63 in 5.0 mi West 13.8 mph - N/A   Overcast
3:55 AM 39.2 °F 32.0 °F 34.7 °F 84% 29.64 in 7.0 mi West 11.5 mph - N/A   Overcast
4:15 AM 39.2 °F 32.5 °F 34.3 °F 83% 29.64 in 5.0 mi West 10.4 mph - N/A   Haze
4:35 AM 39.2 °F 33.0 °F 33.8 °F 81% 29.65 in 5.0 mi West 9.2 mph - N/A   Haze
4:55 AM 39.0 °F 32.8 °F 33.3 °F 80% 29.65 in 7.0 mi West 9.2 mph - N/A   Scattered Clouds
5:15 AM 38.5 °F 32.7 °F 33.1 °F 81% 29.65 in 5.0 mi West 8.1 mph - N/A   Haze
5:35 AM 37.8 °F 33.3 °F 32.9 °F 83% 29.65 in 7.0 mi West 5.8 mph - N/A   Scattered Clouds
5:55 AM 37.9 °F 32.7 °F 32.5 °F 81% 29.65 in 7.0 mi West 6.9 mph - N/A   Clear
6:15 AM 37.6 °F 32.3 °F 32.4 °F 81% 29.66 in 7.0 mi WSW 6.9 mph - N/A   Clear
6:35 AM 37.4 °F 32.8 °F 32.4 °F 82% 29.66 in 7.0 mi WSW 5.8 mph - N/A   Clear
6:55 AM 37.4 °F 32.8 °F 32.2 °F 81% 29.67 in 7.0 mi WSW 5.8 mph - N/A   Clear
7:15 AM 36.7 °F 32.0 °F 32.0 °F 83% 29.68 in 4.0 mi WSW 5.8 mph - N/A   Haze
7:35 AM 36.3 °F 31.6 °F 32.0 °F 84% 29.68 in 4.0 mi WSW 5.8 mph - N/A   Clear
7:55 AM 36.3 °F 31.6 °F 32.4 °F 86% 29.69 in 4.0 mi SW 5.8 mph - N/A   Clear
8:15 AM 36.7 °F 31.2 °F 33.3 °F 87% 29.70 in 4.0 mi SW 6.9 mph - N/A   Clear
8:35 AM 37.8 °F 33.3 °F 34.2 °F 87% 29.70 in 5.0 mi WSW 5.8 mph - N/A   Haze
8:55 AM 39.4 °F 35.2 °F 34.9 °F 84% 29.70 in 5.0 mi SW 5.8 mph - N/A   Haze
9:15 AM 41.0 °F 36.4 °F 36.0 °F 82% 29.71 in 5.0 mi WSW 6.9 mph - N/A   Haze
9:35 AM 42.8 °F 39.3 °F 37.8 °F 82% 29.71 in 5.0 mi WSW 5.8 mph - N/A   Haze
9:55 AM 44.2 °F 39.7 °F 38.8 °F 81% 29.71 in 5.0 mi West 8.1 mph - N/A   Haze
10:15 AM 45.5 °F 41.3 °F 39.7 °F 80% 29.71 in 7.0 mi WNW 8.1 mph - N/A   Clear
10:35 AM 46.8 °F - 40.5 °F 79% 29.71 in 7.0 mi WNW 6.9 mph - N/A   Clear
10:55 AM 47.8 °F - 40.8 °F 77% 29.72 in 7.0 mi WNW 6.9 mph - N/A   Clear
11:15 AM 48.9 °F - 41.5 °F 76% 29.73 in 7.0 mi West 9.2 mph - N/A   Scattered Clouds
11:35 AM 49.3 °F - 41.2 °F 74% 29.74 in 7.0 mi WNW 8.1 mph - N/A   Scattered Clouds
11:55 AM 49.8 °F - 40.8 °F 71% 29.74 in 7.0 mi NW 5.8 mph - N/A   Mostly Cloudy
12:15 PM 50.0 °F - 39.9 °F 68% 29.74 in 10.0 mi WNW 5.8 mph - N/A   Overcast
12:35 PM 49.6 °F - 40.1 °F 70% 29.75 in 7.0 mi NW 6.9 mph - N/A   Overcast
12:55 PM 49.1 °F - 40.6 °F 73% 29.75 in 10.0 mi WNW 8.1 mph - N/A   Overcast
1:15 PM 49.6 °F - 40.6 °F 71% 29.75 in 10.0 mi WNW 8.1 mph - N/A   Overcast
1:35 PM 50.2 °F - 40.8 °F 70% 29.75 in 7.0 mi WNW 8.1 mph - N/A   Overcast
1:55 PM 50.2 °F - 39.9 °F 68% 29.76 in 7.0 mi NW 8.1 mph - N/A   Overcast
2:15 PM 50.7 °F - 40.3 °F 67% 29.76 in 7.0 mi NNW 4.6 mph - N/A   Mostly Cloudy
2:55 PM 52.0 °F - 41.7 °F 68% 29.75 in 7.0 mi NW 8.1 mph 16.1 mph N/A   Overcast
3:15 PM 53.1 °F - 41.7 °F 65% 29.75 in 7.0 mi NNW 9.2 mph - N/A   Mostly Cloudy
3:35 PM 52.9 °F - 42.3 °F 67% 29.75 in 7.0 mi NNW 9.2 mph - N/A   Overcast
3:55 PM 52.9 °F - 42.1 °F 67% 29.75 in 10.0 mi North 10.4 mph - N/A   Overcast
4:15 PM 52.3 °F - 42.3 °F 69% 29.74 in 7.0 mi NNW 9.2 mph - N/A   Overcast
4:35 PM 52.5 °F - 42.4 °F 69% 29.75 in 10.0 mi NNW 9.2 mph - N/A   Overcast
4:55 PM 52.2 °F - 41.7 °F 68% 29.75 in 10.0 mi NNW 9.2 mph - N/A   Overcast
5:15 PM 52.0 °F - 41.0 °F 66% 29.75 in 10.0 mi North 9.2 mph - N/A   Overcast
5:35 PM 52.5 °F - 41.9 °F 67% 29.76 in 10.0 mi NNW 8.1 mph - N/A   Overcast
5:55 PM 52.7 °F - 41.5 °F 66% 29.76 in 7.0 mi NNW 10.4 mph - N/A   Mostly Cloudy
6:15 PM 52.7 °F - 40.5 °F 63% 29.77 in 10.0 mi North 8.1 mph 18.4 mph N/A   Scattered Clouds
6:35 PM 52.5 °F - 40.6 °F 64% 29.78 in 10.0 mi NNW 10.4 mph - N/A   Mostly Cloudy
6:55 PM 52.3 °F - 40.3 °F 64% 29.79 in 10.0 mi NNW 9.2 mph - N/A   Scattered Clouds
7:15 PM 52.3 °F - 39.7 °F 62% 29.79 in 10.0 mi NNW 9.2 mph 16.1 mph N/A   Scattered Clouds
7:35 PM 51.6 °F - 37.9 °F 60% 29.80 in 10.0 mi NNW 8.1 mph - N/A   Clear
7:55 PM 51.1 °F - 37.2 °F 59% 29.81 in 10.0 mi NNW 9.2 mph - N/A   Clear
8:15 PM 50.2 °F - 36.7 °F 60% 29.82 in 10.0 mi NNW 8.1 mph - N/A   Clear
8:35 PM 49.1 °F - 36.7 °F 62% 29.82 in 7.0 mi NNW 5.8 mph - N/A   Clear
8:55 PM 48.4 °F - 36.7 °F 64% 29.83 in 10.0 mi NNW 4.6 mph - N/A   Clear
9:15 PM 46.6 °F - 37.2 °F 70% 29.84 in 10.0 mi NW 4.6 mph - N/A   Clear
9:35 PM 45.0 °F 41.8 °F 37.2 °F 74% 29.85 in 10.0 mi NW 5.8 mph - N/A   Clear
9:55 PM 44.6 °F 40.7 °F 36.7 °F 74% 29.86 in 10.0 mi NW 6.9 mph - N/A   Clear
10:15 PM 43.7 °F 41.1 °F 36.7 °F 76% 29.87 in 10.0 mi NW 4.6 mph - N/A   Clear
10:35 PM 43.5 °F 38.9 °F 36.3 °F 76% 29.86 in 10.0 mi NNW 8.1 mph - N/A   Clear
10:55 PM 44.6 °F 41.4 °F 35.2 °F 70% 29.86 in 10.0 mi NNW 5.8 mph - N/A   Clear
11:15 PM 43.7 °F 39.7 °F 35.1 °F 72% 29.86 in 10.0 mi NW 6.9 mph - N/A   Clear
11:35 PM 41.9 °F 39.0 °F 35.1 °F 77% 29.86 in 10.0 mi NW 4.6 mph - N/A   Clear
11:55 PM 41.2 °F 37.3 °F 34.7 °F 78% 29.86 in 10.0 mi NW 5.8 mph - N/A   Clear